TimeMST,TemperatureF,Dew PointF,Humidity,Sea Level PressureIn,VisibilityMPH,Wind Direction,Wind SpeedMPH,Gust SpeedMPH,PrecipitationIn,Events,Conditions,WindDirDegrees,DateUTC
12:05 AM,35.6,21.2,56,30.20,10.0,SSW,13.8,-,N/A,,Clear,210,2013-01-18 07:05:00
12:25 AM,35.6,21.2,56,30.20,10.0,SSW,12.7,-,N/A,,Clear,210,2013-01-18 07:25:00
12:45 AM,37.4,19.4,48,30.19,10.0,SW,13.8,-,N/A,,Clear,220,2013-01-18 07:45:00
1:05 AM,37.4,19.4,48,30.19,10.0,SSW,13.8,-,N/A,,Clear,210,2013-01-18 08:05:00
1:25 AM,37.4,19.4,48,30.18,10.0,SSW,10.4,-,N/A,,Clear,210,2013-01-18 08:25:00
1:45 AM,37.4,17.6,45,30.19,10.0,SSW,11.5,-,N/A,,Clear,210,2013-01-18 08:45:00
2:05 AM,37.4,17.6,45,30.19,10.0,SSW,13.8,-,N/A,,Clear,210,2013-01-18 09:05:00
2:25 AM,37.4,17.6,45,30.18,10.0,SSW,11.5,-,N/A,,Clear,210,2013-01-18 09:25:00
2:45 AM,35.6,17.6,48,30.18,10.0,SSW,11.5,-,N/A,,Clear,210,2013-01-18 09:45:00
3:05 AM,35.6,15.8,44,30.18,10.0,SSW,13.8,-,N/A,,Clear,210,2013-01-18 10:05:00
3:25 AM,35.6,14.0,41,30.17,10.0,SW,13.8,-,N/A,,Clear,220,2013-01-18 10:25:00
3:45 AM,37.4,14.0,38,30.16,10.0,SW,13.8,-,N/A,,Clear,220,2013-01-18 10:45:00
4:05 AM,37.4,14.0,38,30.16,10.0,SW,13.8,-,N/A,,Clear,220,2013-01-18 11:05:00
4:25 AM,35.6,14.0,41,30.16,10.0,SW,11.5,-,N/A,,Clear,220,2013-01-18 11:25:00
4:44 AM,35.6,12.2,38,30.16,10.0,SW,10.4,-,N/A,,Clear,220,2013-01-18 11:44:00
5:05 AM,35.6,12.2,38,30.14,10.0,SW,12.7,-,N/A,,Clear,220,2013-01-18 12:05:00
5:25 AM,37.4,12.2,36,30.15,10.0,SSW,11.5,-,N/A,,Clear,210,2013-01-18 12:25:00
5:45 AM,37.4,10.4,33,30.14,10.0,SSW,15.0,-,N/A,,Clear,210,2013-01-18 12:45:00
6:05 AM,37.4,10.4,33,30.14,10.0,SSW,12.7,-,N/A,,Clear,210,2013-01-18 13:05:00
6:25 AM,35.6,12.2,38,30.14,10.0,SSW,11.5,-,N/A,,Clear,210,2013-01-18 13:25:00
6:45 AM,35.6,10.4,35,30.14,10.0,SSW,12.7,-,N/A,,Clear,210,2013-01-18 13:45:00
7:05 AM,35.6,10.4,35,30.14,10.0,SSW,10.4,-,N/A,,Clear,210,2013-01-18 14:05:00
7:25 AM,33.8,12.2,41,30.14,10.0,SSW,9.2,-,N/A,,Clear,210,2013-01-18 14:25:00
7:45 AM,35.6,10.4,35,30.15,10.0,SSW,12.7,-,N/A,,Clear,210,2013-01-18 14:45:00
7:50 AM,37.4,8.6,30,30.16,50.0,SSW,11.5,-,N/A,,Clear,200,2013-01-18 14:50:00
8:05 AM,37.4,10.4,33,30.16,10.0,SSW,11.5,-,N/A,,Clear,210,2013-01-18 15:05:00
8:25 AM,39.2,10.4,31,30.16,10.0,SSW,10.4,-,N/A,,Clear,210,2013-01-18 15:25:00
8:45 AM,41.0,10.4,29,30.17,10.0,SW,10.4,-,N/A,,Clear,220,2013-01-18 15:45:00
8:50 AM,42.8,10.4,27,30.17,50.0,SSW,10.4,-,N/A,,Partly Cloudy,210,2013-01-18 15:50:00
9:05 AM,42.8,10.4,27,30.17,10.0,SW,10.4,-,N/A,,Clear,220,2013-01-18 16:05:00
9:26 AM,44.6,12.2,27,30.18,10.0,SW,10.4,-,N/A,,Clear,220,2013-01-18 16:26:00
9:46 AM,44.6,14.0,29,30.18,10.0,SW,9.2,-,N/A,,Clear,220,2013-01-18 16:46:00
9:50 AM,46.4,15.8,29,30.19,50.0,SW,6.9,-,N/A,,Partly Cloudy,220,2013-01-18 16:50:00
10:06 AM,46.4,15.8,29,30.19,10.0,SW,6.9,-,N/A,,Clear,230,2013-01-18 17:06:00
10:25 AM,48.2,17.6,30,30.18,10.0,WSW,5.8,-,N/A,,Clear,240,2013-01-18 17:25:00
10:46 AM,50.0,17.6,28,30.18,10.0,WSW,3.5,-,N/A,,Clear,250,2013-01-18 17:46:00
10:50 AM,50.0,12.2,22,30.17,50.0,West,3.5,-,N/A,,Partly Cloudy,270,2013-01-18 17:50:00
11:05 AM,51.8,17.6,26,30.16,10.0,Calm,Calm,-,N/A,,Clear,0,2013-01-18 18:05:00
11:26 AM,51.8,12.2,21,30.16,10.0,Calm,Calm,-,N/A,,Clear,0,2013-01-18 18:26:00
11:46 AM,53.6,14.0,21,30.14,10.0,Calm,Calm,-,N/A,,Clear,0,2013-01-18 18:46:00
11:50 AM,53.6,12.2,19,30.13,50.0,SSW,5.8,-,N/A,,Partly Cloudy,210,2013-01-18 18:50:00
12:06 PM,53.6,14.0,21,30.13,10.0,SW,4.6,-,N/A,,Clear,230,2013-01-18 19:06:00
12:25 PM,53.6,14.0,21,30.12,10.0,SW,6.9,-,N/A,,Clear,230,2013-01-18 19:25:00
12:46 PM,53.6,14.0,21,30.10,10.0,SSW,6.9,-,N/A,,Clear,210,2013-01-18 19:46:00
1:06 PM,55.4,10.4,17,30.10,10.0,SSW,5.8,-,N/A,,Clear,210,2013-01-18 20:06:00
1:26 PM,55.4,8.6,15,30.09,10.0,Calm,Calm,-,N/A,,Clear,0,2013-01-18 20:26:00
1:45 PM,55.4,10.4,17,30.09,10.0,Calm,Calm,-,N/A,,Clear,0,2013-01-18 20:45:00
2:06 PM,55.4,10.4,17,30.08,10.0,Calm,Calm,-,N/A,,Clear,0,2013-01-18 21:06:00
2:26 PM,55.4,6.8,14,30.08,10.0,Calm,Calm,-,N/A,,Clear,0,2013-01-18 21:26:00
2:45 PM,55.4,8.6,15,30.08,10.0,Calm,Calm,-,N/A,,Clear,0,2013-01-18 21:45:00
3:06 PM,55.4,8.6,15,30.08,10.0,Calm,Calm,-,N/A,,Clear,0,2013-01-18 22:06:00
3:26 PM,55.4,8.6,15,30.08,10.0,Calm,Calm,-,N/A,,Clear,0,2013-01-18 22:26:00
3:46 PM,55.4,12.2,18,30.07,10.0,SSE,3.5,-,N/A,,Clear,160,2013-01-18 22:46:00
4:06 PM,55.4,17.6,23,30.08,10.0,Calm,Calm,-,N/A,,Clear,0,2013-01-18 23:06:00
4:26 PM,53.6,21.2,28,30.08,10.0,SSE,3.5,-,N/A,,Clear,160,2013-01-18 23:26:00
4:46 PM,50.0,23.0,35,30.08,10.0,Calm,Calm,-,N/A,,Clear,0,2013-01-18 23:46:00
5:06 PM,48.2,19.4,32,30.08,10.0,SSE,3.5,-,N/A,,Clear,150,2013-01-19 00:06:00
5:26 PM,48.2,14.0,25,30.09,10.0,Calm,Calm,-,N/A,,Clear,0,2013-01-19 00:26:00
5:45 PM,46.4,12.2,25,30.09,10.0,Calm,Calm,-,N/A,,Clear,0,2013-01-19 00:45:00
6:05 PM,42.8,17.6,36,30.10,10.0,SW,6.9,-,N/A,,Clear,230,2013-01-19 01:05:00
6:25 PM,41.0,19.4,42,30.10,10.0,West,6.9,-,N/A,,Clear,260,2013-01-19 01:25:00
6:46 PM,41.0,17.6,39,30.10,10.0,West,6.9,-,N/A,,Clear,260,2013-01-19 01:46:00
7:06 PM,41.0,15.8,36,30.10,10.0,WSW,6.9,-,N/A,,Clear,250,2013-01-19 02:06:00
7:46 PM,42.8,12.2,29,30.10,10.0,SW,10.4,-,N/A,,Clear,230,2013-01-19 02:46:00
8:05 PM,41.0,14.0,33,30.09,10.0,SW,11.5,-,N/A,,Clear,230,2013-01-19 03:05:00
8:45 PM,39.2,14.0,36,30.09,10.0,SW,9.2,-,N/A,,Clear,220,2013-01-19 03:45:00
9:25 PM,41.0,12.2,31,30.08,10.0,SW,10.4,-,N/A,,Clear,230,2013-01-19 04:25:00
9:45 PM,41.0,12.2,31,30.08,10.0,SW,11.5,-,N/A,,Clear,220,2013-01-19 04:45:00
10:05 PM,39.2,12.2,33,30.07,10.0,SW,11.5,-,N/A,,Clear,220,2013-01-19 05:05:00
10:25 PM,41.0,12.2,31,30.07,10.0,SW,12.7,-,N/A,,Clear,220,2013-01-19 05:25:00
10:45 PM,39.2,12.2,33,30.07,10.0,SW,15.0,-,N/A,,Clear,230,2013-01-19 05:45:00
11:05 PM,39.2,12.2,33,30.06,10.0,SW,12.7,-,N/A,,Clear,220,2013-01-19 06:05:00
11:24 PM,37.4,12.2,36,30.06,10.0,SW,15.0,-,N/A,,Clear,220,2013-01-19 06:24:00
11:45 PM,37.4,12.2,36,30.07,10.0,SW,12.7,-,N/A,,Clear,220,2013-01-19 06:45:00